[[{"header":{"parameterUnit":"m.s-1","parameterCategory":1,"la1":30.2991,"la2":30.254,"lo1":-89.0895,"lo2":-89.0444,"dy":0.0017,"dx":0.0017,"nx":28,"ny":28,"refTime":"2024-12-12T09:00:00:Z","depth":0,"parameterNumber":2,"parameterNumberName":"U-component_of_WINDS"},"data":[0,0,0,0,0,0,0,0,0,0,0,0,0,0,0,0,0,0,0,0,0,0,0,0,0,0,0,0,0,0,0,0,0,0,0,0,0,0,0,0,0,0,0,0,0,0,0,0,0,0,0,0,0,0,0,0,0,0,-7.1471,-7.1471,0,-7.154,-7.1541,-7.1542,-7.1384,-7.1379,-7.1374,-7.1369,-7.1442,-7.1448,-7.1455,0,0,0,0,0,0,0,0,0,0,0,0,0,-7.1203,-7.1208,-7.1471,-7.1471,-7.1472,-7.154,-7.1541,-7.1542,-7.1385,-7.1379,-7.1372,-7.1367,-7.1439,-7.1447,-7.1455,0,0,0,0,0,0,0,0,0,0,0,0,0,-7.13,-7.121,-7.147,-7.1402,-7.1397,-7.154,-7.1541,-7.1542,-7.1386,-7.1378,-7.1371,-7.1364,-7.1437,-7.1446,-7.1456,-7.167,0,0,-7.1487,-7.1491,0,0,0,0,0,0,0,0,-7.1295,-7.131,-7.1411,-7.1407,-7.1401,-7.1446,-7.1473,-7.1585,-7.1388,-7.139,-7.1369,-7.136,-7.1449,-7.1458,-7.1487,-7.1673,-7.1676,-7.1488,-7.1494,-7.1498,-7.1501,0,0,0,0,0,0,0,-7.1289,-7.1307,-7.1498,-7.1413,-7.1407,-7.1368,-7.1374,-7.1493,-7.1461,-7.1389,-7.1378,-7.1388,-7.1445,-7.1478,-7.1488,-7.1677,-7.1487,-7.1496,-7.1502,-7.1506,-7.2042,-7.205,0,0,0,0,0,0,-7.129,-7.1302,-7.1496,-7.15,-7.1328,-7.1379,-7.1385,-7.1439,-7.146,-7.1455,-7.1395,-7.1381,-7.1465,-7.1476,-7.149,-7.1741,-7.1498,-7.1507,-7.1513,-7.2034,-7.2044,-7.2053,0,0,0,0,0,0,-7.1285,-7.1309,-7.1493,-7.1398,-7.1419,-7.1392,-7.1453,-7.1444,-7.1477,-7.1464,-7.1457,-7.1435,-7.1459,-7.1476,-7.1626,-7.1741,-7.1512,-7.1521,-7.2024,-7.2037,-7.2048,-7.2246,0,0,0,0,0,0,-7.1278,-7.1308,-7.1389,-7.1401,-7.1424,-7.1629,-7.1461,-7.1451,-7.1495,-7.1477,-7.1499,-7.1496,-7.1455,-7.1612,-7.1636,-7.1751,-7.1528,-7.2014,-7.203,-7.2044,-7.2229,-7.2263,-7.2293,0,0,0,0,0,-7.1269,-7.1442,-7.1394,-7.1418,-7.1524,-7.1635,-7.1649,-7.1597,-7.1505,-7.1586,-7.1577,-7.1495,-7.1725,-7.1629,-7.1654,-7.1774,-7.2006,-7.2025,-7.2043,-7.2215,-7.2257,-7.2292,0,0,0,0,0,0,-7.1443,-7.1442,-7.1389,-7.157,-7.1604,-7.1608,-7.1709,-7.1644,-7.1705,-7.1686,-7.162,-7.1626,-7.179,-7.1797,-7.1689,-7.1982,-7.185,-7.1875,-7.1971,-7.2011,-7.2043,-7.2038,-7.1537,0,0,0,0,0,-7.1503,-7.1593,-7.1587,-7.1748,-7.1768,-7.1736,-7.1782,-7.174,-7.1773,-7.1786,-7.1788,-7.1824,-7.1904,-7.1958,-7.2031,-7.2229,-7.2232,-7.2324,-7.2356,-7.2383,-7.2405,-7.2511,-7.2552,-7.2114,-7.2114,-7.2113,0,0,-7.1627,-7.1637,-7.1698,-7.1783,-7.1804,-7.19,-7.1749,-7.1856,-7.1926,-7.1802,-7.1944,-7.1948,-7.1983,-7.2159,-7.2236,-7.2169,-7.2527,-7.2407,-7.2428,-7.2435,-7.2534,-7.2576,-7.2613,-7.2126,-7.2124,-7.2122,0,0,-7.1901,-7.1918,-7.2054,-7.2079,-7.2113,-7.2091,-7.2124,-7.2139,-7.2136,-7.2278,-7.2187,-7.227,-7.2409,-7.2438,-7.2471,-7.2758,-7.2685,-7.2784,-7.2951,-7.3056,-7.309,-7.312,-7.3223,-7.3261,-7.2806,-7.2806,-7.2807,0,-7.2051,-7.2191,-7.2133,-7.2246,-7.2286,-7.2179,-7.2317,-7.2344,-7.2401,-7.2431,-7.2356,-7.2529,-7.2545,-7.2726,-7.2796,-7.2826,-7.2862,-7.2781,-7.309,-7.312,-7.3147,-7.3244,-7.3283,-7.2818,-7.2817,-7.2816,-7.2814,0,-7.2373,-7.2472,-7.2577,-7.2635,-7.2687,-7.2813,-7.2774,-7.2834,-7.2788,-7.2774,-7.292,-7.2936,-7.301,-7.305,-7.3006,-7.3226,-7.3183,-7.3101,-7.2966,-7.3202,-7.3292,-7.3329,-7.2835,-7.2831,-7.2827,-7.2824,0,0,-7.2759,-7.2783,-7.2823,-7.2848,-7.2879,-7.2954,-7.3075,-7.3147,-7.32,-7.3243,-7.3343,-7.3464,-7.3388,-7.3425,-7.3383,-7.3475,-7.3702,-7.3381,-7.338,-7.344,-7.3946,-7.4009,-7.4053,-7.3654,-7.3661,-7.3667,-7.3943,0,-7.303,-7.3237,-7.3189,-7.3394,-7.3484,-7.3384,-7.3489,-7.352,-7.3511,-7.3587,-7.3576,-7.3663,-7.3555,-7.3578,-7.3664,-7.3657,-7.3803,-7.3636,-7.3747,-7.3752,-7.3741,-7.41,-7.4166,-7.4426,-7.3978,-7.3984,-7.3988,0,-7.3374,-7.3431,-7.3645,-7.3661,-7.3697,-7.3793,-7.3856,-7.393,-7.3963,-7.3949,-7.3993,-7.3933,-7.4053,-7.3919,-7.4084,-7.3971,-7.4014,-7.4017,-7.4026,-7.4034,-7.3884,-7.4118,-7.4507,-7.4547,-7.4043,-7.4039,-7.4035,0,-7.3634,-7.3764,-7.3909,-7.3933,-7.3956,-7.4026,-7.4039,-7.4064,-7.4111,-7.4167,-7.4197,-7.4266,-7.4304,-7.4359,-7.432,-7.4226,-7.4493,-7.4354,-7.4485,-7.4487,-7.4545,-7.4542,-7.4948,-7.4574,-7.4573,-7.4573,-7.4572,0,-7.3942,-7.4077,-7.4026,-7.4115,-7.4263,-7.4207,-7.4356,-7.4357,-7.4381,-7.4469,-7.4387,-7.4471,-7.4415,-7.4495,-7.4466,-7.4607,-7.4625,-7.4618,-7.4609,-7.4626,-7.4627,-7.4652,-7.4633,-7.4583,-7.4581,-7.4579,-7.4577,0,-7.4258,-7.4228,-7.438,-7.4389,-7.4395,-7.4504,-7.4512,-7.4595,-7.458,-7.4693,-7.4716,-7.4693,-7.4783,-7.475,-7.4846,-7.4827,-7.5007,-7.4974,-7.4996,-7.4988,-7.5121,-7.5109,-7.5557,-7.5613,-7.5204,-7.5208,-7.5211,0,-7.4456,-7.4557,-7.4578,-7.4631,-7.465,-7.4736,-7.4784,-7.4733,-7.4786,-7.4832,-7.4911,-7.4993,-7.5057,-7.5206,-7.5198,-7.5272,-7.524,-7.5392,-7.525,-7.5264,-7.5242,-7.5237,-7.5247,-7.542,-7.5425,-7.5429,-7.5432,0,-7.4811,-7.4792,-7.4864,-7.4932,-7.4991,-7.5042,-7.5085,-7.5134,-7.5085,-7.515,-7.5241,-7.529,-7.5389,-7.5472,-7.5539,-7.5552,-7.5485,-7.5477,-7.5511,-7.5529,-7.5537,-7.5535,-7.5073,-7.5466,-7.5463,-7.546,-7.5459,-7.5457,-7.5074,-7.5159,-7.5188,-7.5271,-7.5298,-7.5341,-7.542,-7.5415,-7.549,-7.5566,-7.5532,-7.5638,-7.5669,-7.5751,-7.5774,-7.5856,-7.5797,-7.5847,-7.5859,-7.5872,-7.589,-7.5525,-7.5868,-7.5867,-7.5866,-7.5865,-7.5865,0,-7.5424,-7.5438,-7.5515,-7.5579,-7.5645,-7.5576,-7.5621,-7.568,-7.5774,-7.5809,-7.5874,-7.5979,-7.606,-7.6059,-7.6135,-7.6201,-7.6172,-7.6223,-7.6217,-7.6221,-7.5938,-7.5901,-7.6245,-7.6245,-7.6245,-7.6244,-7.6244,-7.6244,-7.5615,-7.5756,-7.5741,-7.5896,-7.5908,-7.6011,-7.6043,-7.6082,-7.6109,-7.6231,-7.6298,-7.6297,-7.6317,-7.6394,-7.6466,-7.6463,-7.6495,-7.6557,-7.6544,-7.6279,-7.6241,-7.6205,-7.617,-7.6565,-7.6565,-7.682,-7.6822,-7.6824]},{"header":{"parameterUnit":"m.s-1","parameterCategory":1,"la1":30.2991,"la2":30.254,"lo1":-89.0895,"lo2":-89.0444,"dy":0.0017,"dx":0.0017,"nx":28,"ny":28,"refTime":"2024-12-12T09:00:00:Z","depth":0,"parameterNumber":3,"parameterNumberName":"V-component_of_WINDS"},"data":[0,0,0,0,0,0,0,0,0,0,0,0,0,0,0,0,0,0,0,0,0,0,0,0,0,0,0,0,0,0,0,0,0,0,0,0,0,0,0,0,0,0,0,0,0,0,0,0,0,0,0,0,0,0,0,0,0,0,-1.451,-1.451,0,-1.4531,-1.4531,-1.4531,-1.449,-1.4488,-1.4487,-1.4486,-1.4509,-1.4511,-1.4513,0,0,0,0,0,0,0,0,0,0,0,0,0,-1.4434,-1.4435,-1.451,-1.451,-1.451,-1.4531,-1.4531,-1.4531,-1.449,-1.4488,-1.4487,-1.4485,-1.4509,-1.4511,-1.4513,0,0,0,0,0,0,0,0,0,0,0,0,0,-1.4462,-1.4436,-1.451,-1.4492,-1.4491,-1.4531,-1.4531,-1.4531,-1.449,-1.4488,-1.4486,-1.4484,-1.4508,-1.4511,-1.4514,-1.4572,0,0,-1.4522,-1.4524,0,0,0,0,0,0,0,0,-1.446,-1.4465,-1.4494,-1.4493,-1.4492,-1.4505,-1.4513,-1.4545,-1.4491,-1.449,-1.4486,-1.4483,-1.451,-1.4512,-1.4521,-1.4574,-1.4575,-1.4523,-1.4524,-1.4526,-1.4526,0,0,0,0,0,0,0,-1.4458,-1.4464,-1.4518,-1.4495,-1.4493,-1.4483,-1.4485,-1.4519,-1.4512,-1.449,-1.4487,-1.449,-1.4509,-1.4518,-1.4521,-1.4575,-1.4522,-1.4525,-1.4527,-1.4528,-1.4674,-1.4676,0,0,0,0,0,0,-1.4459,-1.4462,-1.4517,-1.4519,-1.4471,-1.4486,-1.4488,-1.4503,-1.4511,-1.451,-1.4492,-1.4488,-1.4514,-1.4518,-1.4522,-1.459,-1.4526,-1.4528,-1.453,-1.4672,-1.4675,-1.4677,0,0,0,0,0,0,-1.4457,-1.4464,-1.4517,-1.449,-1.4496,-1.4489,-1.4507,-1.4505,-1.4514,-1.4512,-1.4511,-1.4503,-1.4513,-1.4518,-1.4559,-1.459,-1.4529,-1.4532,-1.467,-1.4673,-1.4676,-1.4728,0,0,0,0,0,0,-1.4455,-1.4464,-1.4486,-1.449,-1.4497,-1.4554,-1.4509,-1.4507,-1.4519,-1.4514,-1.4522,-1.4522,-1.4512,-1.4555,-1.4562,-1.4593,-1.4534,-1.4667,-1.4671,-1.4675,-1.4723,-1.4732,-1.474,0,0,0,0,0,-1.4453,-1.4501,-1.4488,-1.4494,-1.4525,-1.4556,-1.456,-1.4547,-1.4522,-1.4544,-1.4542,-1.4521,-1.4586,-1.456,-1.4568,-1.46,-1.4665,-1.467,-1.4675,-1.4719,-1.473,-1.474,0,0,0,0,0,0,-1.4502,-1.4501,-1.4487,-1.4538,-1.4547,-1.4549,-1.4577,-1.4559,-1.4577,-1.4572,-1.4555,-1.4557,-1.4602,-1.4605,-1.4576,-1.4656,-1.4621,-1.4628,-1.4652,-1.4663,-1.4671,-1.467,-1.4537,0,0,0,0,0,-1.4518,-1.4543,-1.4541,-1.4587,-1.4592,-1.4583,-1.4597,-1.4585,-1.4595,-1.4599,-1.46,-1.4611,-1.4633,-1.4648,-1.4668,-1.4723,-1.4723,-1.4748,-1.4757,-1.4764,-1.477,-1.4797,-1.4808,-1.4693,-1.4693,-1.4693,0,0,-1.4554,-1.4556,-1.4573,-1.4596,-1.4602,-1.4628,-1.4587,-1.4617,-1.4636,-1.4603,-1.4642,-1.4644,-1.4654,-1.4702,-1.4723,-1.4706,-1.4801,-1.477,-1.4776,-1.4778,-1.4803,-1.4814,-1.4824,-1.4697,-1.4696,-1.4695,0,0,-1.463,-1.4635,-1.4672,-1.4678,-1.4687,-1.4681,-1.469,-1.4694,-1.4693,-1.4731,-1.4707,-1.4729,-1.4768,-1.4776,-1.4785,-1.4862,-1.4843,-1.4869,-1.4913,-1.494,-1.4949,-1.4957,-1.4983,-1.4993,-1.4875,-1.4875,-1.4875,0,-1.4673,-1.4711,-1.4694,-1.4724,-1.4735,-1.4705,-1.4742,-1.4749,-1.4765,-1.4773,-1.4752,-1.4799,-1.4804,-1.4853,-1.4871,-1.488,-1.4889,-1.4868,-1.4949,-1.4957,-1.4964,-1.4989,-1.4999,-1.4878,-1.4878,-1.4877,-1.4877,0,-1.4762,-1.4788,-1.4817,-1.4831,-1.4845,-1.4879,-1.4867,-1.4882,-1.4869,-1.4865,-1.4904,-1.4908,-1.4928,-1.4938,-1.4927,-1.4985,-1.4973,-1.4951,-1.4916,-1.4978,-1.5001,-1.5011,-1.4882,-1.4881,-1.488,-1.488,0,0,-1.4873,-1.4874,-1.4885,-1.489,-1.4897,-1.4917,-1.4948,-1.4967,-1.498,-1.4991,-1.5017,-1.5049,-1.5028,-1.5038,-1.5027,-1.505,-1.5109,-1.5025,-1.5025,-1.504,-1.5172,-1.5188,-1.52,-1.5096,-1.5098,-1.5099,-1.5171,0,-1.4948,-1.5001,-1.4986,-1.504,-1.5063,-1.5034,-1.5061,-1.5068,-1.5064,-1.5083,-1.5079,-1.5102,-1.5073,-1.5078,-1.51,-1.5097,-1.5135,-1.5092,-1.512,-1.5121,-1.5118,-1.5212,-1.523,-1.5297,-1.518,-1.5181,-1.5182,0,-1.5044,-1.5056,-1.5112,-1.5112,-1.5121,-1.5146,-1.516,-1.5179,-1.5185,-1.5181,-1.5191,-1.5174,-1.5204,-1.5168,-1.521,-1.5181,-1.5191,-1.5191,-1.5193,-1.5196,-1.5156,-1.5216,-1.5318,-1.5328,-1.5197,-1.5196,-1.5195,0,-1.5117,-1.5149,-1.5185,-1.5191,-1.5192,-1.521,-1.5211,-1.5216,-1.5227,-1.5239,-1.5246,-1.5263,-1.5272,-1.5284,-1.5272,-1.5247,-1.5315,-1.5279,-1.5312,-1.5312,-1.5328,-1.5327,-1.5433,-1.5335,-1.5335,-1.5335,-1.5335,0,-1.5203,-1.5238,-1.5218,-1.5241,-1.5279,-1.526,-1.5298,-1.5297,-1.53,-1.5322,-1.5298,-1.5318,-1.5301,-1.532,-1.531,-1.5345,-1.535,-1.5347,-1.5344,-1.5349,-1.5349,-1.5356,-1.5351,-1.5337,-1.5337,-1.5336,-1.5336,0,-1.5293,-1.5281,-1.5318,-1.5316,-1.5316,-1.5344,-1.5341,-1.5362,-1.5355,-1.5383,-1.5388,-1.5378,-1.5399,-1.5388,-1.541,-1.5403,-1.5448,-1.5439,-1.5446,-1.5444,-1.5477,-1.5474,-1.5591,-1.5605,-1.5498,-1.5499,-1.55,0,-1.5348,-1.5374,-1.5373,-1.5385,-1.5388,-1.5408,-1.5418,-1.54,-1.5412,-1.542,-1.544,-1.5458,-1.5472,-1.5507,-1.5502,-1.5518,-1.5509,-1.5549,-1.5512,-1.5515,-1.5509,-1.5507,-1.5509,-1.5556,-1.5558,-1.5559,-1.5559,0,-1.5448,-1.5439,-1.5455,-1.5468,-1.5481,-1.5491,-1.5499,-1.551,-1.5492,-1.5507,-1.5527,-1.5538,-1.5559,-1.5578,-1.5591,-1.5593,-1.5573,-1.5571,-1.5579,-1.5585,-1.5587,-1.5586,-1.5466,-1.5569,-1.5568,-1.5567,-1.5567,-1.5566,-1.5521,-1.5542,-1.5544,-1.5562,-1.5565,-1.5572,-1.5591,-1.5585,-1.5602,-1.5617,-1.5605,-1.5629,-1.5633,-1.5649,-1.5652,-1.5671,-1.5655,-1.5668,-1.5671,-1.5674,-1.5678,-1.5584,-1.5673,-1.5673,-1.5673,-1.5673,-1.5672,0,-1.5619,-1.5618,-1.5634,-1.5644,-1.5658,-1.5637,-1.5644,-1.5657,-1.5678,-1.5682,-1.5696,-1.5718,-1.5735,-1.5731,-1.5746,-1.5761,-1.5753,-1.5766,-1.5765,-1.5765,-1.5692,-1.5683,-1.5772,-1.5772,-1.5772,-1.5772,-1.5772,-1.5772,-1.5671,-1.5704,-1.5696,-1.5731,-1.573,-1.5752,-1.5757,-1.5763,-1.5767,-1.5792,-1.5806,-1.5802,-1.5803,-1.5817,-1.5832,-1.583,-1.5837,-1.5853,-1.5848,-1.578,-1.577,-1.5761,-1.5752,-1.5855,-1.5855,-1.5919,-1.592,-1.592]}]]